Stations météo

réclame
Mon MeteoGroup
Granada/Aeropuerto, Espagne (8419): Température de l'air & dewpoint: 12.01.2019 13:00:00 - 18.01.2019 13:00:00 (CET)Granada/Aeropuerto, Espagne (8419): Vitesse du vent: 12.01.2019 13:00:00 - 18.01.2019 13:00:00 (CET)Granada/Aeropuerto, Espagne (8419): Direction du vent: 12.01.2019 13:00:00 - 18.01.2019 13:00:00 (CET)Granada/Aeropuerto, Espagne (8419): reduced air pressure: 12.01.2019 13:00:00 - 18.01.2019 13:00:00 (CET)Granada/Aeropuerto, Espagne (8419): visibility: 12.01.2019 13:00:00 - 18.01.2019 13:00:00 (CET)
Date & Time tt [°C] td [°C] ff [km/h] ff [knt] dd ppp [hPa] vv [km]
18.01.2019 13:00:00 - - - - - - -
18.01.2019 12:00:00 7,6 1,9 0 0 N 1021,2 15
18.01.2019 11:00:00 4,2 1,1 4 2 NNW 1022,4 10
18.01.2019 10:00:00 1,8 0,2 0 0 N 1022,8 10
18.01.2019 09:00:00 -1,1 -1,8 4 2 SSW 1022,8 2,8
18.01.2019 08:00:00 -1,5 -2,3 0 0 N 1022,6 8
18.01.2019 07:00:00 0,5 -0,4 4 2 N 1021,5 10
18.01.2019 06:00:00 1,3 0,7 0 0 N 1020,9 9
18.01.2019 05:00:00 0,7 0,0 0 0 N 1021,3 9
18.01.2019 04:00:00 0,4 -0,4 0 0 N 1021,6 11
18.01.2019 03:00:00 -0,1 -1,1 0 0 N 1021,3 10
18.01.2019 02:00:00 0,7 -0,5 2 1 SW 1021,2 13
18.01.2019 01:00:00 1,7 0,0 9 5 WSW 1021,2 15
18.01.2019 00:00:00 4,9 1,9 5 3 SW 1020,5 22
17.01.2019 23:00:00 5,8 2,4 5 3 W 1019,8 24
17.01.2019 22:00:00 5,9 2,2 8 4 S 1019,5 27
17.01.2019 21:00:00 6,2 1,9 4 2 W 1019,1 30
17.01.2019 20:00:00 5,9 0,6 4 2 SW 1018,7 30
17.01.2019 19:00:00 5,8 0,1 4 2 W 1018,1 30
17.01.2019 18:00:00 7,9 0,2 8 4 NW 1017,0 30
17.01.2019 17:00:00 10,2 0,2 5 3 WNW 1016,4 30
17.01.2019 16:00:00 11,1 1,3 11 6 N 1016,0 26
17.01.2019 15:00:00 11,3 1,7 9 5 NW 1016,2 30
17.01.2019 14:00:00 12,0 2,7 4 2 W 1016,9 20
17.01.2019 13:00:00 9,2 3,1 2 1 WSW 1018,5 12
17.01.2019 12:00:00 6,0 2,3 4 2 NNW 1020,3 9
17.01.2019 11:00:00 2,8 1,1 0 0 N 1021,4 8
17.01.2019 10:00:00 0,1 -0,5 0 0 N 1021,6 5
17.01.2019 09:00:00 -2,2 -2,8 0 0 N 1021,9 7
17.01.2019 08:00:00 -2,9 -3,6 0 0 N 1021,6 5
17.01.2019 07:00:00 -2,5 -3,2 0 0 N 1021,2 7
17.01.2019 06:00:00 -1,2 -1,8 4 2 SSW 1020,7 6
17.01.2019 05:00:00 -1,6 -2,3 5 3 WSW 1020,9 8
17.01.2019 04:00:00 -1,0 -1,6 2 1 W 1021,1 -
17.01.2019 03:00:00 -0,6 -1,3 4 2 ESE 1021,3 7
17.01.2019 02:00:00 -0,1 -0,8 0 0 N 1021,7 6
17.01.2019 01:00:00 0,2 -0,7 0 0 N 1021,8 8
17.01.2019 00:00:00 1,2 0,2 0 0 N 1021,8 8
16.01.2019 23:00:00 1,9 1,0 0 0 N 1021,6 10
16.01.2019 22:00:00 3,9 1,9 4 2 NNW 1020,8 10
16.01.2019 21:00:00 5,4 2,7 4 2 SSW 1020,3 12
16.01.2019 20:00:00 5,6 2,8 4 2 WNW 1020,0 12
16.01.2019 19:00:00 5,7 3,0 5 3 SSW 1019,5 8
16.01.2019 18:00:00 9,5 3,5 4 2 W 1018,3 15
16.01.2019 17:00:00 12,4 3,7 0 0 N 1017,7 22
16.01.2019 16:00:00 12,6 4,0 2 1 S 1018,0 17
16.01.2019 15:00:00 11,1 4,5 0 0 N 1019,0 14
16.01.2019 14:00:00 8,6 3,6 0 0 N 1020,4 9
16.01.2019 13:00:00 5,6 2,5 0 0 N 1022,1 7
16.01.2019 12:00:00 3,9 1,9 0 0 N 1023,6 7
16.01.2019 11:00:00 1,6 0,6 0 0 N 1024,4 6
16.01.2019 10:00:00 -0,5 -1,2 0 0 N 1024,5 6
16.01.2019 09:00:00 -2,7 -3,4 0 0 N 1024,7 4,9
16.01.2019 08:00:00 -3,0 -3,8 2 1 W 1024,6 6
16.01.2019 07:00:00 -2,4 -3,0 0 0 N 1024,1 6
16.01.2019 06:00:00 -1,9 -2,5 0 0 N 1023,9 -
16.01.2019 05:00:00 -1,8 -2,4 2 1 NNW 1024,3 3,8
16.01.2019 04:00:00 -1,5 -2,3 0 0 N 1024,6 6
16.01.2019 03:00:00 -0,6 -1,3 4 2 SSW 1024,5 6
16.01.2019 02:00:00 -0,5 -1,3 0 0 N 1024,6 -
16.01.2019 01:00:00 0,4 -0,6 0 0 N 1024,6 10
16.01.2019 00:00:00 1,7 0,5 2 1 WSW 1024,3 10
15.01.2019 23:00:00 2,7 1,2 0 0 N 1023,7 7
15.01.2019 22:00:00 4,0 1,9 0 0 N 1023,1 10
15.01.2019 21:00:00 6,3 3,1 4 2 W 1022,1 13
15.01.2019 20:00:00 7,3 2,6 4 2 WSW 1021,5 18
15.01.2019 19:00:00 9,8 3,1 13 7 SW 1020,4 25
15.01.2019 18:00:00 12,7 3,1 8 4 WSW 1019,3 15
15.01.2019 17:00:00 15,7 3,0 4 2 W 1018,3 28
15.01.2019 16:00:00 15,5 2,9 5 3 W 1018,4 25
15.01.2019 15:00:00 14,1 1,6 5 3 W 1018,7 30
15.01.2019 14:00:00 12,3 1,0 0 0 N 1019,8 20
15.01.2019 13:00:00 9,4 1,3 4 2 NW 1021,6 15
15.01.2019 12:00:00 6,9 0,6 0 0 N 1023,3 21
15.01.2019 11:00:00 3,8 0,3 0 0 N 1024,4 21
15.01.2019 10:00:00 -0,4 -1,7 0 0 N 1024,9 12
15.01.2019 09:00:00 -1,9 -2,6 0 0 N 1024,7 11
15.01.2019 08:00:00 -2,9 -3,9 0 0 N 1024,5 15
15.01.2019 07:00:00 -3,4 -4,2 0 0 N 1024,4 10
15.01.2019 06:00:00 -3,3 -4,3 2 1 SW 1024,0 14
15.01.2019 05:00:00 -2,9 -3,9 2 1 SSE 1024,2 10
15.01.2019 04:00:00 -2,3 -3,4 0 0 N 1024,7 14
15.01.2019 03:00:00 -1,8 -2,8 0 0 N 1024,5 26
15.01.2019 02:00:00 -1,3 -2,5 0 0 N 1024,4 21
15.01.2019 01:00:00 -0,4 -2,3 0 0 N 1024,2 19
15.01.2019 00:00:00 0,9 -1,4 0 0 N 1024,1 30
14.01.2019 23:00:00 2,3 -0,8 5 3 SW 1023,5 28
14.01.2019 22:00:00 4,0 -0,6 0 0 N 1023,0 25
14.01.2019 21:00:00 6,1 0,4 2 1 WSW 1022,2 22
14.01.2019 20:00:00 8,1 1,0 8 4 WSW 1021,4 12
14.01.2019 19:00:00 10,5 0,8 13 7 WSW 1020,1 20
14.01.2019 18:00:00 14,4 1,5 15 8 WSW 1018,9 7
14.01.2019 17:00:00 17,6 1,1 15 8 W 1018,0 30
14.01.2019 16:00:00 17,8 -0,2 13 7 WNW 1018,3 30
14.01.2019 15:00:00 15,7 0,5 8 4 NW 1019,3 28
14.01.2019 14:00:00 12,5 0,6 0 0 N 1021,1 20
14.01.2019 13:00:00 9,1 -1,3 0 0 N 1023,2 20
14.01.2019 12:00:00 5,8 -1,6 0 0 N 1025,5 17
14.01.2019 11:00:00 2,6 -1,8 0 0 N 1026,9 17
14.01.2019 10:00:00 -0,9 -3,4 0 0 N 1027,9 13
14.01.2019 09:00:00 -4,8 -5,9 0 0 N 1028,7 11
14.01.2019 08:00:00 -5,2 -6,7 0 0 N 1029,2 12
14.01.2019 07:00:00 -4,3 -5,3 0 0 N 1028,9 12
14.01.2019 06:00:00 -5,0 -6,1 0 0 N 1029,2 13
14.01.2019 05:00:00 -4,0 -5,1 0 0 N 1029,4 13
14.01.2019 04:00:00 -4,6 -5,8 0 0 N 1030,0 13
14.01.2019 03:00:00 -4,3 -5,7 2 1 S 1029,7 11
14.01.2019 02:00:00 -3,6 -5,3 0 0 N 1029,7 13
14.01.2019 01:00:00 -2,8 -4,0 5 3 S 1029,6 19
14.01.2019 00:00:00 -2,1 -3,7 0 0 N 1029,8 18
13.01.2019 23:00:00 -1,4 -3,6 0 0 N 1029,7 18
13.01.2019 22:00:00 -0,4 -3,4 0 0 N 1029,3 30
13.01.2019 21:00:00 1,1 -2,7 4 2 WSW 1028,6 30
13.01.2019 20:00:00 3,5 -1,9 0 0 N 1027,9 15
13.01.2019 19:00:00 5,4 -1,3 13 7 SSE 1027,0 30
13.01.2019 18:00:00 12,5 -1,5 4 2 ESE 1024,7 30
13.01.2019 17:00:00 14,5 -1,3 0 0 N 1024,2 28
13.01.2019 16:00:00 13,5 -2,0 0 0 N 1024,6 30
13.01.2019 15:00:00 13,2 -1,5 0 0 N 1025,4 30
13.01.2019 14:00:00 10,3 -2,2 0 0 N 1027,2 20
13.01.2019 13:00:00 7,2 -3,1 4 2 N 1029,2 30
13.01.2019 12:00:00 5,6 -3,8 0 0 N 1031,1 19
13.01.2019 11:00:00 2,2 -2,4 0 0 N 1032,4 20
13.01.2019 10:00:00 -1,6 -3,5 0 0 N 1032,9 16
13.01.2019 09:00:00 -5,6 -7,0 0 0 N 1033,8 17
13.01.2019 08:00:00 -5,7 -6,8 2 1 SSW 1033,4 15
13.01.2019 07:00:00 -5,4 -6,4 4 2 WSW 1033,0 12
13.01.2019 06:00:00 -5,2 -6,3 0 0 N 1032,9 15
13.01.2019 05:00:00 -4,8 -5,8 0 0 N 1032,9 16
13.01.2019 04:00:00 -3,8 -4,5 5 3 S 1032,8 11
13.01.2019 03:00:00 -4,3 -5,7 0 0 N 1033,1 15
13.01.2019 02:00:00 -3,1 -4,1 4 2 WSW 1032,7 15
13.01.2019 01:00:00 -2,9 -3,9 4 2 S 1032,8 14
13.01.2019 00:00:00 -2,4 -3,6 0 0 N 1032,9 12
12.01.2019 23:00:00 -1,2 -2,6 0 0 N 1032,3 17
12.01.2019 22:00:00 -0,6 -2,6 0 0 N 1031,6 20
12.01.2019 21:00:00 0,8 -2,0 2 1 SW 1030,9 15
12.01.2019 20:00:00 2,7 -1,4 4 2 NW 1030,0 20
12.01.2019 19:00:00 4,4 -1,8 11 6 S 1029,1 30
12.01.2019 18:00:00 11,9 -3,5 4 2 W 1026,6 8
12.01.2019 17:00:00 13,5 -3,8 0 0 N 1025,8 30
12.01.2019 16:00:00 13,2 -7,1 4 2 NW 1026,0 30
12.01.2019 15:00:00 12,4 -1,8 0 0 N 1026,3 30
12.01.2019 14:00:00 10,4 -1,8 0 0 N 1027,6 30
12.01.2019 13:00:00 8,5 -2,4 0 0 N 1028,9 30

tt = Température de l'air
td = dewpoint
ff = Vitesse du vent
dd = Direction du vent
ppp = reduced air pressure
vv = visibility

stations d'obs. à proximité